Detroit, MI

12:21 AM EDT on June 26, 2017 (GMT -0400)
Detroit City

Weather History for KDET - September, 2012

Change the Weather History Date:

Wednesday, September 19, 2012

  Actual Average Record
Temperature  
Mean Temperature 54 °F -  
Max Temperature 64 °F 73 °F 93 °F (1955)
Min Temperature 43 °F 55 °F 42 °F (1959)
Degree Days  
Heating Degree Days 12    
Growing Degree Days 4 (Base 50)    
Moisture  
Dew Point 38 °F    
Average Humidity 55    
Maximum Humidity 82    
Minimum Humidity 37    
Precipitation  
Precipitation 0.00 in - - ()
Sea Level Pressure  
Sea Level Pressure 30.06 in    
Wind  
Wind Speed 6 mph (SW)    
Max Wind Speed 17 mph    
Max Gust Speed 22 mph    
Visibility 10 miles    
Events      
Averages and records for this station are not official NWS values.
T = Trace of Precipitation, MM = Missing Value Source: NWS Daily Summary

Daily Weather History Graph

Daily Weather History Graph

Search for Another Location

Airport or City:

Trip Planner

Search our weather history database for the weather conditions in past years. The results will help you decide how hot, cold, wet, or windy it might be!

Date:

Astronomy

Sep. 19, 2012 Rise Set
Actual Time 7:16 AM EDT 7:33 PM EDT
Civil Twilight 6:48 AM EDT 8:01 PM EDT
Nautical Twilight 6:15 AM EDT 8:34 PM EDT
Astronomical Twilight 5:41 AM EDT 9:08 PM EDT
Moon 11:31 AM EDT (9/19) 9:35 PM EDT (9/19)
Length of Visible Light 13h 13m
Length of Day
12h 17m
Waxing Crescent, 17% of the Moon is Illuminated
Sep 19
Waxing Crescent
Sep 22
First Quarter
Sep 29
Full
Oct 8
Last Quarter
Oct 15
New

Hourly Weather History & Observations

Time (EDT) Temp. Windchill Dew Point Humidity Pressure Visibility Wind Dir Wind Speed Gust Speed Precip Events Conditions
12:53 AM 48.0 °F - 37.0 °F 66% 29.99 in 10.0 mi West 4.6 mph - N/A   Clear
1:53 AM 46.9 °F - 37.9 °F 71% 30.01 in 10.0 mi WNW 3.5 mph - N/A   Clear
2:53 AM 46.0 °F 43.9 °F 37.9 °F 73% 30.01 in 10.0 mi West 4.6 mph - N/A   Clear
3:53 AM 45.0 °F 42.6 °F 37.9 °F 76% 30.02 in 10.0 mi West 4.6 mph - N/A   Partly Cloudy
4:53 AM 44.1 °F 41.5 °F 37.9 °F 79% 30.04 in 10.0 mi West 4.6 mph - N/A   Clear
5:53 AM 44.1 °F 41.5 °F 37.9 °F 79% 30.06 in 10.0 mi West 4.6 mph - N/A   Clear
6:53 AM 43.0 °F 41.3 °F 37.9 °F 82% 30.07 in 10.0 mi WSW 3.5 mph - N/A   Clear
7:53 AM 43.0 °F 41.3 °F 37.9 °F 82% 30.10 in 10.0 mi SW 3.5 mph - N/A   Clear
8:53 AM 48.9 °F - 39.0 °F 69% 30.11 in 10.0 mi West 4.6 mph - N/A   Clear
9:53 AM 53.1 °F - 39.0 °F 59% 30.12 in 10.0 mi Calm Calm - N/A   Clear
10:53 AM 55.9 °F - 34.0 °F 44% 30.13 in 10.0 mi West 9.2 mph - N/A   Clear
11:53 AM 59.0 °F - 36.0 °F 42% 30.13 in 10.0 mi West 5.8 mph - N/A   Clear
12:53 PM 59.0 °F - 37.0 °F 44% 30.12 in 10.0 mi WNW 4.6 mph 17.3 mph N/A   Clear
1:53 PM 61.0 °F - 37.0 °F 41% 30.11 in 10.0 mi Calm Calm - N/A   Clear
2:53 PM 64.0 °F - 37.0 °F 37% 30.09 in 10.0 mi WSW 8.1 mph 18.4 mph N/A   Clear
3:53 PM 64.9 °F - 39.9 °F 40% 30.07 in 10.0 mi SSW 13.8 mph 21.9 mph N/A   Clear
4:53 PM 64.0 °F - 37.9 °F 38% 30.06 in 10.0 mi South 11.5 mph 19.6 mph N/A   Clear
5:53 PM 64.0 °F - 37.9 °F 38% 30.05 in 10.0 mi South 16.1 mph 21.9 mph N/A   Clear
6:53 PM 63.0 °F - 37.9 °F 40% 30.04 in 10.0 mi South 17.3 mph 21.9 mph N/A   Clear
7:53 PM 62.1 °F - 37.9 °F 41% 30.02 in 10.0 mi South 10.4 mph - N/A   Clear
8:53 PM 62.1 °F - 37.9 °F 41% 30.03 in 10.0 mi South 10.4 mph - N/A   Scattered Clouds
9:53 PM 61.0 °F - 39.0 °F 44% 30.02 in 10.0 mi South 8.1 mph - N/A   Partly Cloudy
10:53 PM 61.0 °F - 39.9 °F 46% 30.01 in 10.0 mi South 11.5 mph - N/A   Clear
11:53 PM 61.0 °F - 39.9 °F 46% 30.01 in 10.0 mi South 11.5 mph - N/A   Mostly Cloudy